EW0159 Weather Reports


Display with metric or nautical units.
time (UTC)temp
F
wind
direction
speed
MPH
gust
MPH
rain 1hr
in
rain 24hr
in
rain mn
in
humidity
%
barometer
mb
20260508170036 54 211 2.0 5.0 0.00 0.00 0.00 78 1021.3
20260508164537 54 235 0.0 5.0 0.00 0.00 0.00 80 1021.3
20260508163031 54 236 0.0 3.0 0.00 0.00 0.00 81 1021.1
20260508161527 52 143 0.0 6.0 0.00 0.00 0.00 80 1021.0
20260508160025 52 153 2.0 4.0 0.00 0.00 0.00 81 1021.2
20260508154541 52 52 1.0 6.0 0.00 0.00 0.00 81 1020.7
20260508153021 52 150 3.0 7.0 0.00 0.00 0.00 82 1020.7
20260508151522 52 111 3.0 6.0 0.00 0.00 0.00 82 1020.5
20260508150019 51 171 1.0 3.0 0.00 0.00 0.00 83 1020.5
20260508144517 51 171 0.0 2.0 0.00 0.00 0.00 82 1020.7
20260508143017 50 171 0.0 2.0 0.00 0.00 0.00 79 1020.5
20260508141522 49 171 1.0 2.0 0.00 0.00 0.00 78 1020.7
20260508140014 49 269 0.0 2.0 0.00 0.00 0.00 78 1020.5
20260508134513 48 269 0.0 0.0 0.00 0.00 0.00 78 1020.1
20260508133009 47 269 0.0 1.0 0.00 0.00 0.00 79 1019.8
20260508131506 47 269 0.0 1.0 0.00 0.00 0.00 80 1019.5
20260508130005 47 207 0.0 1.0 0.00 0.00 0.00 80 1019.3
20260508124605 47 207 0.0 2.0 0.00 0.00 0.00 81 1018.9
20260508123058 48 219 1.0 3.0 0.00 0.00 0.00 81 1018.7
20260508121556 48 360 0.0 0.0 0.00 0.00 0.00 81 1018.7
20260508120055 48 360 0.0 1.0 0.00 0.00 0.00 81 1018.6
20260508114554 48 360 0.0 1.0 0.00 0.00 0.00 81 1018.4
20260508113054 48 360 0.0 2.0 0.00 0.00 0.00 81 1018.3
20260508111552 48 360 0.0 0.0 0.00 0.00 0.00 81 1018.1
20260508110048 48 360 0.0 1.0 0.00 0.00 0.00 81 1017.9
20260508104546 48 360 0.0 0.0 0.00 0.00 0.00 81 1017.7
20260508103043 48 25 0.0 1.0 0.00 0.00 0.00 81 1017.5
20260508101542 48 78 1.0 2.0 0.00 0.00 0.00 81 1017.4
20260508100053 48 78 0.0 1.0 0.00 0.00 0.00 81 1017.3
20260508094541 48 78 0.0 0.0 0.00 0.00 0.00 81 1017.3
20260508093037 48 78 0.0 1.0 0.00 0.00 0.00 81 1017.1
20260508091535 48 78 0.0 1.0 0.00 0.00 0.00 82 1017.0
20260508090049 49 78 0.0 1.0 0.00 0.00 0.00 81 1016.9
20260508084532 49 78 0.0 2.0 0.00 0.00 0.00 82 1016.8
20260508083030 49 78 0.0 0.0 0.00 0.00 0.00 82 1016.8
20260508081532 49 78 0.0 2.0 0.00 0.00 0.00 82 1016.7
20260508080027 49 78 0.0 1.0 0.00 0.00 0.00 82 1016.7
20260508074527 50 55 0.0 1.0 0.00 0.00 0.00 82 1016.6
20260508073023 50 55 0.0 1.0 0.00 0.00 0.00 82 1016.6
20260508071521 51 55 0.0 0.0 0.00 0.00 0.00 82 1016.6
20260508070019 51 55 0.0 1.0 0.00 0.00 0.00 82 1016.4
20260508064519 52 55 0.0 1.0 0.00 0.00 0.00 82 1016.4
20260508063018 52 55 0.0 2.0 0.00 0.00 0.00 81 1016.5
20260508061517 53 55 0.0 2.0 0.00 0.00 0.00 81 1016.5
20260508060017 53 55 2.0 3.0 0.00 0.00 0.00 81 1016.5
20260508054517 54 55 1.0 3.0 0.00 0.00 0.00 80 1016.5
20260508053019 54 28 1.0 2.0 0.00 0.00 0.00 80 1016.4
20260508051515 55 28 0.0 1.0 0.00 0.00 0.00 79 1016.4
20260508050014 55 28 0.0 2.0 0.00 0.00 0.00 79 1016.4
20260508044515 56 94 1.0 2.0 0.00 0.00 0.00 78 1016.4
20260508043017 57 68 1.0 2.0 0.00 0.00 0.00 75 1016.4
20260508041517 58 68 0.0 1.0 0.00 0.00 0.00 73 1016.3
20260508040013 60 68 0.0 2.0 0.00 0.00 0.00 71 1016.0
20260508034516 61 68 0.0 2.0 0.00 0.00 0.00 67 1016.0
20260508033012 62 18 0.0 3.0 0.00 0.00 0.00 63 1015.8
20260508031512 64 343 1.0 5.0 0.00 0.00 0.00 61 1015.8
20260508030010 64 50 2.0 5.0 0.00 0.00 0.00 59 1015.6
20260508024525 65 32 2.0 4.0 0.00 0.00 0.00 59 1015.7
20260508023008 66 18 2.0 5.0 0.00 0.00 0.00 59 1015.7
20260508021508 66 82 2.0 5.0 0.00 0.00 0.00 57 1015.7
20260508020007 67 22 2.0 8.0 0.00 0.00 0.00 54 1015.8
20260508014506 68 92 2.0 4.0 0.00 0.00 0.00 52 1015.8
20260508013004 68 78 1.0 4.0 0.00 0.00 0.00 49 1016.0
20260508011503 69 163 2.0 5.0 0.00 0.00 0.00 49 1016.2
20260508010005 69 144 2.0 6.0 0.00 0.00 0.00 50 1016.2
20260508004603 69 183 3.0 9.0 0.00 0.00 0.00 50 1016.2
20260508003059 71 213 1.0 4.0 0.00 0.00 0.00 50 1016.3
20260508001558 71 229 2.0 6.0 0.00 0.00 0.00 52 1016.4
20260508000054 70 132 3.0 7.0 0.00 0.00 0.00 53 1016.5
20260507234555 69 130 4.0 8.0 0.00 0.00 0.00 53 1016.6
20260507233058 69 202 3.0 7.0 0.00 0.00 0.00 55 1016.7
20260507231549 69 184 2.0 9.0 0.00 0.00 0.00 52 1016.9
20260507224542 69 204 4.0 7.0 0.00 0.00 0.00 53 1017.4
20260507223039 67 200 2.0 6.0 0.00 0.00 0.00 52 1017.7
20260507221541 68 184 3.0 7.0 0.00 0.00 0.00 53 1017.9
20260507220033 67 225 3.0 6.0 0.00 0.00 0.00 56 1018.2
20260507214535 66 196 4.0 7.0 0.00 0.00 0.00 54 1018.3
20260507213032 67 232 3.0 8.0 0.00 0.00 0.00 50 1018.4
20260507211527 66 244 2.0 6.0 0.00 0.00 0.00 56 1018.6
20260507210026 64 188 2.0 4.0 0.00 0.00 0.00 53 1018.8
20260507204522 64 157 2.0 6.0 0.00 0.00 0.00 53 1019.1
20260507203036 64 169 0.0 7.0 0.00 0.00 0.00 58 1019.2
20260507201517 63 183 2.0 7.0 0.00 0.00 0.00 57 1019.5
20260507200011 62 155 3.0 7.0 0.00 0.00 0.00 58 1019.7
20260507194516 61 178 1.0 7.0 0.00 0.00 0.00 60 1019.8
20260507193008 61 50 2.0 7.0 0.00 0.00 0.00 63 1019.9
20260507191508 60 175 2.0 8.0 0.00 0.00 0.00 65 1020.1
20260507190008 60 97 1.0 7.0 0.00 0.00 0.00 65 1020.1
20260507184600 60 139 1.0 10.0 0.00 0.00 0.00 69 1020.3
20260507183058 60 189 3.0 7.0 0.00 0.00 0.00 67 1020.4
20260507181555 59 156 2.0 6.0 0.00 0.00 0.00 68 1020.5
20260507180051 58 107 1.0 3.0 0.00 0.00 0.00 69 1020.6
20260507174551 58 126 0.0 7.0 0.00 0.00 0.00 70 1020.7
20260507173120 57 175 2.0 5.0 0.00 0.00 0.00 71 1020.9
20260507171545 56 152 2.0 6.0 0.00 0.00 0.00 72 1021.0